User: anonymous   Login
Location: Caltech
(34.1382°N, 118.1253°W)
Time: 02:02:38
(UTC-08:00)
Language:

SL-16 R/B - Orbit

View from above orbital plane
View from above orbital plane
View from above satellite
View from above satellite

Ground track
Ground track

The orbit data is extracted from the following two-line orbital elements,

1 28353U 04021B   17350.63813164  .00000063  00000-0  57862-4 0  9997
2 28353  71.0029  55.8330 0007525 279.4128  80.6144 14.14207431697954
Epoch (UTC): 16 December 2017 15:18:54
Eccentricity: 0.0007525
inclination: 71.0029°
perigee height: 839 km
apogee height: 850 km
right ascension of ascending node: 55.8330°
argument of perigee: 279.4128°
revolutions per day: 14.14207431
mean anomaly at epoch: 80.6144°
orbit number at epoch: 69795

The dashed part of the orbit path shows where the satellite is in the earth's shadow,  

DLR